Location: Clatteringshaws Loch
(55.0508°N, 4.2860°W)
Time: 02:29:10
(UTC+01:00)

Amateur Radio Satellites - All Passes

Search period start: 01 August 2015 01:59
Search period end: 02 August 2015 01:59
Location: Clatteringshaws Loch, 55.0508°N, 4.2860°W

Satellite Date Start Highest point End Downlink Frequencies (MHz)
Time Altitude Azimuth
M-CUBED/EXP-1 PRIME 01 Aug 02:00:37 02:02:38 12° 322° (NW) 02:04:32 437.505
TISAT 1 01 Aug 02:01:03 02:04:15 20° 270° (W) 02:07:23 437.305
DUCHIFAT 1 01 Aug 02:02:18 02:05:53 27° 299° (WNW) 02:09:26 145.980
QB50P1 01 Aug 02:05:12 02:08:42 25° 300° (WNW) 02:12:09 145.935-145.965
NANOSAT C BR1 01 Aug 02:06:41 02:10:09 24° 300° (WNW) 02:13:34 145.865
Cosmos 2491 01 Aug 02:16:37 02:23:15 24° 284° (WNW) 02:29:38 435.465 / 435.565
BEESAT 01 Aug 02:20:05 02:24:51 62° 258° (WSW) 02:29:38 436.000
BEESAT 3 01 Aug 02:21:33 02:25:34 50° 325° (NW) 02:29:36 437.485
Oscar 19 01 Aug 02:25:21 02:30:12 39° 96° (E) 02:35:05 437.125/150
O/OREOS (USA 219) 01 Aug 02:31:10 02:35:26 45° 113° (ESE) 02:39:47 437.305
MOZHAYETS 4 01 Aug 02:34:16 02:35:39 11° 47° (NE) 02:37:12
ISS 01 Aug 02:39:07 02:42:07 33° 197° (SSW) 02:45:06 145.825
SWISSCUBE 01 Aug 02:40:57 02:45:30 40° 263° (W) 02:50:02 437.505
YUBILEINY 01 Aug 02:45:52 02:54:18 49° 295° (WNW) 03:02:46 435.215
POLYITAN 1 01 Aug 02:49:11 02:51:09 13° 309° (NW) 02:53:01 437.675
RS-15 01 Aug 02:50:15 03:01:14 53° 357° (N) 03:12:45 29.354- 29.394
STARS 01 Aug 02:54:57 02:59:06 44° 66° (ENE) 03:03:18 437.465
ITUPSAT 1 01 Aug 03:02:06 03:06:23 30° 266° (W) 03:10:38 437.325
Cosmos 2504 01 Aug 03:07:19 03:14:12 50° 89° (E) 03:21:41 435.465 / 435.565
AIST 2 01 Aug 03:09:51 03:14:07 71° 320° (NW) 03:18:24 435.215
BUGSAT 1 01 Aug 03:14:02 03:15:07 11° 310° (NW) 03:16:04 437.445
BEESAT 2 01 Aug 03:19:23 03:23:07 31° 336° (NNW) 03:26:51 435.950
KKS-1 01 Aug 03:20:17 03:24:43 78° 255° (WSW) 03:29:11 437.445
Gurwin Techsat 1B 01 Aug 03:20:17 03:25:17 40° 96° (E) 03:30:17 435.225
AO-7 01 Aug 03:24:28 03:28:20 14° 76° (ENE) 03:32:41 29.400- 29.500
ITAMSAT 1 01 Aug 03:45:14 03:50:19 53° 100° (E) 03:55:24 435.822/435.867
JAS-2 01 Aug 03:51:17 03:58:29 41° 92° (E) 04:05:50 435.910
BEESAT 3 01 Aug 04:00:59 04:04:18 23° 348° (NNW) 04:07:36 437.485
BEESAT 01 Aug 04:02:22 04:03:47 11° 279° (W) 04:04:58 436.000
Oscar 19 01 Aug 04:04:46 04:09:38 42° 297° (WNW) 04:14:30 437.125/150
MOZHAYETS 4 01 Aug 04:07:26 04:11:55 49° 67° (ENE) 04:16:26
O/OREOS (USA 219) 01 Aug 04:10:50 04:15:01 35° 314° (NW) 04:19:13 437.305
HORYU 2 01 Aug 04:11:16 04:14:13 17° 87° (E) 04:17:17 437.375
ISS 01 Aug 04:16:22 04:17:54 13° 215° (SW) 04:19:21 145.825
CUBESAT XI-V 01 Aug 04:26:08 04:28:15 13° 50° (NE) 04:30:31 437.345
STARS 01 Aug 04:31:51 04:35:42 29° 266° (W) 04:39:33 437.465
STRAND 1 01 Aug 04:46:30 04:47:46 11° 42° (NE) 04:49:12 437.568
YUBILEINY 01 Aug 04:48:18 04:53:58 18° 324° (NW) 04:59:24 435.215
AIST 2 01 Aug 04:49:38 04:53:19 27° 343° (NNW) 04:56:58 435.215
DANDE 01 Aug 04:52:57 04:55:11 20° 96° (E) 04:57:16 436.750
BEESAT 2 01 Aug 04:59:01 05:02:13 21° 359° (N) 05:05:24 435.950
Cosmos 2504 01 Aug 04:59:33 05:06:35 47° 295° (WNW) 05:14:08 435.465 / 435.565
KKS-1 01 Aug 05:00:08 05:02:12 13° 276° (W) 05:04:05 437.445
Gurwin Techsat 1B 01 Aug 05:00:19 05:05:22 44° 297° (WNW) 05:10:22 435.225
RS-15 01 Aug 05:04:16 05:15:43 67° 29° (NNE) 05:27:44 29.354- 29.394
AO-7 01 Aug 05:15:18 05:23:28 54° 101° (ESE) 05:31:36 29.400- 29.500
CUSAT 1 01 Aug 05:15:24 05:18:05 67° 101° (E) 05:20:41 437.405
ITAMSAT 1 01 Aug 05:25:03 05:29:41 33° 301° (WNW) 05:34:15 435.822/435.867
GONETS M04 01 Aug 05:32:03 05:39:00 29° 79° (E) 05:46:09
JAS-2 01 Aug 05:36:18 05:43:55 66° 293° (WNW) 05:51:41 435.910
BEESAT 3 01 Aug 05:40:04 05:43:23 23° 12° (NNE) 05:46:40 437.485
PRISM 01 Aug 05:41:48 05:44:15 16° 54° (NE) 05:46:48 437.425
MOZHAYETS 4 01 Aug 05:45:18 05:49:22 29° 267° (W) 05:53:25
Oscar 19 01 Aug 05:46:08 05:47:51 11° 318° (NW) 05:49:25 437.125/150
HORYU 2 01 Aug 05:46:55 05:51:28 80° 288° (WNW) 05:56:00 437.375
O/OREOS (USA 219) 01 Aug 05:53:38 05:55:49 13° 339° (NNW) 05:57:56 437.305
CUBESAT XI-V 01 Aug 06:00:16 06:04:52 59° 69° (ENE) 06:09:29 437.345
STRAND 1 01 Aug 06:21:02 06:25:47 40° 63° (ENE) 06:30:37 437.568
AIST 2 01 Aug 06:29:38 06:33:01 22° 6° (N) 06:36:24 435.215
DANDE 01 Aug 06:36:05 06:38:15 19° 294° (WNW) 06:40:16 436.750
BEESAT 2 01 Aug 06:37:39 06:41:20 30° 23° (NNE) 06:44:59 435.950
Gurwin Techsat 1B 01 Aug 06:42:07 06:44:11 12° 318° (NW) 06:46:06 435.225
CUTE-I 01 Aug 06:49:26 06:53:48 26° 90° (E) 06:58:15 437.470
Cosmos 2504 01 Aug 06:56:54 07:01:22 16° 323° (NW) 07:05:45 435.465 / 435.565
AO-7 01 Aug 07:08:20 07:16:23 53° 305° (NW) 07:24:20 29.400- 29.500
AUBIESAT-1 01 Aug 07:08:39 07:09:47 11° 36° (NE) 07:11:04 437.475
PRISM 01 Aug 07:14:55 07:19:07 84° 73° (ENE) 07:23:20 437.425
RS-15 01 Aug 07:17:02 07:28:27 64° 236° (WSW) 07:40:16 29.354- 29.394
BEESAT 3 01 Aug 07:18:07 07:22:07 50° 35° (NE) 07:26:04 437.485
JAS-2 01 Aug 07:22:02 07:27:50 24° 315° (NW) 07:33:38 435.910
HORYU 2 01 Aug 07:24:37 07:27:29 16° 308° (NW) 07:30:13 437.375
GONETS M04 01 Aug 07:26:14 07:34:59 86° 283° (WNW) 07:43:45
Cosmos 2499 01 Aug 07:26:16 07:32:41 32° 81° (E) 07:39:41 435.465 / 435.565
Cubesat XI-IV 01 Aug 07:32:59 07:38:13 52° 100° (E) 07:43:25 437.490
CUBESAT XI-V 01 Aug 07:38:52 07:42:42 24° 270° (W) 07:46:27 437.345
STRAND 1 01 Aug 08:00:10 08:05:02 41° 263° (W) 08:09:55 437.568
AIST 2 01 Aug 08:08:31 08:12:33 40° 29° (NNE) 08:16:32 435.215
M-CUBED/EXP-1 PRIME 01 Aug 08:10:15 08:13:52 27° 52° (NE) 08:17:45 437.505
BEESAT 2 01 Aug 08:15:40 08:19:49 84° 225° (SW) 08:23:52 435.950
CUTE-I 01 Aug 08:29:05 08:34:24 67° 292° (WNW) 08:39:40 437.470
BRITE-PL 01 Aug 08:35:49 08:39:40 32° 95° (E) 08:43:44 437.365/2234.400
DOVE 4 01 Aug 08:38:19 08:41:08 17° 87° (E) 08:44:12 437.250
AUBIESAT-1 01 Aug 08:39:25 08:43:22 39° 57° (ENE) 08:47:38 437.475
GOMX 1 01 Aug 08:47:59 08:51:46 28° 93° (E) 08:55:47 467.674
CINEMA 3 01 Aug 08:50:45 08:52:03 11° 81° (E) 08:53:37 145.822/145.860
PRISM 01 Aug 08:52:42 08:55:10 15° 273° (W) 08:57:31 437.425
YUBILEINY 01 Aug 08:52:53 08:57:46 16° 32° (NNE) 09:02:54 435.215
BEESAT 3 01 Aug 08:56:14 08:59:58 35° 235° (SW) 09:03:38 437.485
PCSat 01 Aug 08:57:14 09:00:04 15° 106° (ESE) 09:03:06 145.827
COMPASS 1 01 Aug 08:59:12 09:01:06 13° 83° (E) 09:03:09 437.405
AO-7 01 Aug 09:01:31 09:07:34 23° 329° (NNW) 09:13:27 29.400- 29.500
UNISAT 6 01 Aug 09:04:05 09:06:43 16° 52° (NE) 09:09:30 437.425
HO-68 01 Aug 09:05:22 09:11:32 31° 91° (E) 09:17:49 435.675
JAS-2 01 Aug 09:09:04 09:10:23 10° 339° (NNW) 09:11:31 435.910
SEEDS 01 Aug 09:12:56 09:16:09 21° 89° (E) 09:19:25 437.485
Cubesat XI-IV 01 Aug 09:13:22 09:18:12 35° 300° (WNW) 09:22:58 437.490
SO-50 01 Aug 09:14:11 09:15:59 12° 110° (ESE) 09:18:00 436.795
CUTE 1.7 + AOD 2 01 Aug 09:15:12 09:18:48 25° 91° (E) 09:22:25 437.475
O/OREOS (USA 219) 01 Aug 09:15:44 09:18:42 17° 29° (NNE) 09:21:45 437.305
Cosmos 2499 01 Aug 09:17:37 09:25:12 74° 286° (WNW) 09:33:29 435.465 / 435.565
POPSAT HIP 1 01 Aug 09:21:44 09:22:03 10° 48° (NE) 09:22:32 437.405
CUBEBUG 2 01 Aug 09:23:11 09:24:34 11° 81° (E) 09:26:10 437.445
CANX-2 01 Aug 09:23:23 09:27:17 32° 94° (E) 09:31:11 2200.000
GONETS M04 01 Aug 09:25:53 09:33:18 29° 309° (NW) 09:40:34
QB50P2 01 Aug 09:28:05 09:29:33 12° 50° (NE) 09:31:09 145.880/145.840
RS-15 01 Aug 09:30:37 09:38:48 22° 261° (W) 09:46:37 29.354- 29.394
AAUSAT CUBESAT 2 01 Aug 09:39:45 09:43:15 25° 92° (E) 09:46:47 437.432
M-CUBED/EXP-1 PRIME 01 Aug 09:44:12 09:48:21 59° 253° (WSW) 09:52:51 437.505
TIGRISAT 01 Aug 09:45:58 09:49:47 30° 61° (ENE) 09:53:43 435.000
AIST 2 01 Aug 09:47:08 09:51:16 52° 231° (SW) 09:55:18 435.215
ANTELSAT 01 Aug 09:47:35 09:51:28 31° 62° (ENE) 09:55:29 437.575/2403.000
DUCHIFAT 1 01 Aug 09:51:31 09:54:06 16° 55° (NE) 09:56:47 145.980
QB50P1 01 Aug 09:54:25 09:57:11 18° 56° (NE) 10:00:04 145.935-145.965
BEESAT 2 01 Aug 09:54:43 09:57:17 16° 245° (WSW) 09:59:45 435.950
NANOSAT C BR1 01 Aug 09:55:41 09:58:29 18° 56° (NE) 10:01:23 145.865
CUTE-I 01 Aug 10:10:14 10:13:39 17° 312° (NW) 10:16:55 437.470
AUBIESAT-1 01 Aug 10:14:10 10:18:06 37° 258° (WSW) 10:22:18 437.475
BRITE-PL 01 Aug 10:14:21 10:18:19 39° 294° (WNW) 10:22:29 437.365/2234.400
DOVE 4 01 Aug 10:15:01 10:19:31 85° 285° (WNW) 10:24:16 437.250
ZACube-1 01 Aug 10:19:27 10:22:57 22° 89° (E) 10:26:34 437.345
CINEMA 3 01 Aug 10:25:37 10:30:12 65° 102° (ESE) 10:34:59 145.822/145.860
GOMX 1 01 Aug 10:25:55 10:30:07 48° 292° (WNW) 10:34:35 467.674
COMPASS 1 01 Aug 10:33:14 10:37:32 84° 106° (ESE) 10:41:45 437.405
POLYITAN 1 01 Aug 10:36:06 10:39:57 36° 65° (ENE) 10:43:52 437.675
PCSat 01 Aug 10:37:14 10:42:36 66° 126° (SE) 10:48:01 145.827
UNISAT 6 01 Aug 10:38:25 10:42:49 79° 72° (ENE) 10:47:22 437.425
FUNcube-1 01 Aug 10:40:56 10:44:58 32° 94° (E) 10:49:05 145.935
UWE-3 01 Aug 10:42:30 10:46:49 41° 97° (E) 10:51:14 435.000/436.395/437.385
SEEDS 01 Aug 10:48:05 10:52:21 61° 289° (WNW) 10:56:32 437.485
YUBILEINY 01 Aug 10:49:28 10:57:45 43° 61° (ENE) 11:06:05 435.215
CUTE 1.7 + AOD 2 01 Aug 10:50:46 10:54:57 49° 292° (WNW) 10:59:06 437.475
SO-50 01 Aug 10:50:52 10:55:37 56° 129° (SE) 11:00:29 436.795
Cosmos 2504 01 Aug 10:52:36 10:55:13 12° 27° (NNE) 10:58:09 435.465 / 435.565
HO-68 01 Aug 10:52:50 11:00:02 77° 293° (WNW) 11:07:13 435.675
POPSAT HIP 1 01 Aug 10:52:59 10:57:02 49° 68° (ENE) 11:01:08 437.405
AO-7 01 Aug 10:53:21 10:57:26 15° 357° (N) 11:01:29 29.400- 29.500
Oscar 11 01 Aug 10:54:02 10:58:23 58° 101° (E) 11:02:41 145.826/435.025
O/OREOS (USA 219) 01 Aug 10:54:38 10:59:10 56° 53° (NE) 11:03:41 437.305
UKube-1 01 Aug 10:56:36 10:58:48 14° 85° (E) 11:01:10 .
CUBEBUG 2 01 Aug 10:57:37 11:02:11 66° 102° (ESE) 11:06:52 437.445
BUGSAT 1 01 Aug 10:58:11 11:01:53 36° 65° (ENE) 11:05:38 437.445
50 SAT 01 Aug 10:58:25 10:59:22 11° 83° (E) 11:00:31 437.505
CANX-2 01 Aug 10:59:15 11:03:17 39° 294° (WNW) 11:07:17 2200.000
AISAT 01 Aug 11:00:09 11:01:18 11° 82° (E) 11:02:42 437.250
QB50P2 01 Aug 11:00:31 11:04:39 59° 70° (ENE) 11:08:51 145.880/145.840
DELFI C3 01 Aug 11:01:55 11:05:55 49° 100° (E) 11:09:52 145.870
HUMSAT D 01 Aug 11:07:24 11:11:02 26° 92° (E) 11:14:44 437.325/437.525
Cosmos 2499 01 Aug 11:13:58 11:20:08 24° 313° (NW) 11:26:29 435.465 / 435.565
AAUSAT CUBESAT 2 01 Aug 11:15:00 11:19:05 48° 292° (WNW) 11:23:08 437.432
TIGRISAT 01 Aug 11:22:09 11:26:23 46° 262° (W) 11:30:44 435.000
DX 1 01 Aug 11:23:34 11:27:10 25° 92° (E) 11:30:49 434.975-435.025
ANTELSAT 01 Aug 11:23:56 11:28:09 44° 262° (W) 11:32:29 437.575/2403.000
DUCHIFAT 1 01 Aug 11:25:10 11:29:22 90° 245° (WSW) 11:33:36 145.980
QB50P1 01 Aug 11:28:21 11:32:34 82° 256° (WSW) 11:36:49 145.935-145.965
NANOSAT C BR1 01 Aug 11:29:38 11:33:50 81° 255° (WSW) 11:38:05 145.865
GONETS M04 01 Aug 11:31:10 11:34:08 12° 340° (NNW) 11:36:54
Cosmos 2491 01 Aug 11:34:22 11:41:05 27° 77° (ENE) 11:48:00 435.465 / 435.565
VELOX 1 01 Aug 11:37:33 11:41:00 22° 91° (E) 11:44:31 145.980
ESTCUBE 1 01 Aug 11:48:46 11:52:14 22° 90° (E) 11:55:47 437.505/2401.250
DOVE 4 01 Aug 11:53:52 11:56:46 17° 305° (NW) 11:59:39 437.250
ZACube-1 01 Aug 11:55:14 11:59:42 63° 289° (WNW) 12:04:14 437.345
CINEMA 3 01 Aug 12:03:24 12:07:06 24° 300° (WNW) 12:10:50 145.822/145.860
GOMX 1 01 Aug 12:06:59 12:07:26 10° 311° (NW) 12:07:42 467.674
COMPASS 1 01 Aug 12:09:49 12:12:41 17° 304° (NW) 12:15:26 437.405
Oscar 19 01 Aug 12:11:35 12:15:37 25° 55° (NE) 12:19:46 437.125/150
POLYITAN 1 01 Aug 12:12:03 12:15:53 33° 264° (W) 12:19:45 437.675
FUNcube-1 01 Aug 12:17:08 12:21:24 43° 293° (WNW) 12:25:43 145.935
UNISAT 6 01 Aug 12:17:17 12:20:15 17° 274° (W) 12:23:09 437.425
AIST 1 01 Aug 12:18:26 12:22:20 34° 92° (E) 12:26:16
UWE-3 01 Aug 12:19:10 12:23:18 35° 296° (WNW) 12:27:29 435.000/436.395/437.385
PCSat 01 Aug 12:21:15 12:26:22 40° 328° (NNW) 12:31:31 145.827
SEEDS 01 Aug 12:25:33 12:27:21 12° 309° (NW) 12:29:00 437.485
CUTE 1.7 + AOD 2 01 Aug 12:29:09 12:29:58 10° 311° (NW) 12:30:37 437.475
POPSAT HIP 1 01 Aug 12:29:40 12:33:10 25° 268° (W) 12:36:38 437.405
JAS-2 01 Aug 12:30:41 12:34:01 14° 32° (NNE) 12:37:40 435.910
50 SAT 01 Aug 12:30:42 12:34:43 77° 104° (ESE) 12:38:42 437.505
Oscar 11 01 Aug 12:30:43 12:34:17 24° 300° (WNW) 12:37:46 145.826/435.025
UKube-1 01 Aug 12:31:18 12:35:40 88° 106° (ESE) 12:39:59 .
SO-50 01 Aug 12:31:37 12:36:21 46° 332° (NNW) 12:41:09 436.795
BUGSAT 1 01 Aug 12:33:49 12:37:26 30° 265° (W) 12:41:02 437.445
AISAT 01 Aug 12:34:24 12:38:50 69° 103° (ESE) 12:43:14 437.250
O/OREOS (USA 219) 01 Aug 12:34:28 12:38:21 27° 253° (WSW) 12:42:11 437.305
CUBEBUG 2 01 Aug 12:34:53 12:38:33 24° 301° (WNW) 12:42:13 437.445
DELFI C3 01 Aug 12:37:24 12:40:45 25° 299° (WNW) 12:44:03 145.870
QB50P2 01 Aug 12:37:41 12:40:55 21° 270° (W) 12:44:07 145.880/145.840
HO-68 01 Aug 12:41:11 12:46:53 26° 316° (NW) 12:52:28 435.675
AO-7 01 Aug 12:41:44 12:47:08 20° 25° (NNE) 12:52:40 29.400- 29.500
HUMSAT D 01 Aug 12:42:49 12:47:00 48° 292° (WNW) 12:51:10 437.325/437.525
Cosmos 2504 01 Aug 12:43:38 12:50:46 32° 56° (NE) 12:58:17 435.465 / 435.565
YUBILEINY 01 Aug 12:46:28 12:55:10 65° 266° (W) 13:03:50 435.215
CUBEBUG 1 01 Aug 12:48:47 12:53:05 58° 101° (ESE) 12:57:22 437.445
DX 1 01 Aug 12:59:28 13:03:41 50° 293° (WNW) 13:07:54 434.975-435.025
DUCHIFAT 1 01 Aug 13:03:39 13:05:52 14° 275° (W) 13:07:56 145.980
QB50P1 01 Aug 13:07:20 13:09:12 12° 276° (W) 13:10:56 145.935-145.965
NANOSAT C BR1 01 Aug 13:08:38 13:10:27 12° 276° (W) 13:12:07 145.865
Gurwin Techsat 1B 01 Aug 13:10:05 13:14:24 27° 56° (NE) 13:18:49 435.225
VELOX 1 01 Aug 13:13:35 13:17:56 58° 291° (WNW) 13:22:15 145.980
Cosmos 2499 01 Aug 13:16:49 13:17:21 10° 344° (NNW) 13:17:42 435.465 / 435.565
SPROUT 01 Aug 13:24:55 13:29:05 46° 99° (E) 13:33:15 437.525
ESTCUBE 1 01 Aug 13:25:03 13:29:32 62° 290° (WNW) 13:33:58 437.505/2401.250
Cosmos 2491 01 Aug 13:28:08 13:36:56 88° 100° (E) 13:45:44 435.465 / 435.565
ITAMSAT 1 01 Aug 13:31:51 13:36:28 33° 59° (ENE) 13:41:07 435.822/435.867
ZACube-1 01 Aug 13:33:04 13:35:18 13° 309° (NW) 13:37:26 437.345
GONETS M04 01 Aug 13:34:40 13:36:21 11° 15° (NNE) 13:38:13
TISAT 1 01 Aug 13:36:52 13:40:50 39° 97° (E) 13:44:49 437.305
Oscar 19 01 Aug 13:49:26 13:54:33 75° 255° (WSW) 13:59:45 437.125/150
AIST 1 01 Aug 13:55:58 14:00:00 35° 292° (WNW) 14:03:59
CUSAT 1 01 Aug 13:59:46 14:01:49 14° 61° (ENE) 14:04:17 437.405
50 SAT 01 Aug 14:06:09 14:08:51 17° 303° (WNW) 14:11:27 437.505
PCSat 01 Aug 14:06:47 14:11:09 24° 353° (N) 14:15:31 145.827
UKube-1 01 Aug 14:08:21 14:11:16 18° 306° (NW) 14:14:05 .
JAS-2 01 Aug 14:11:17 14:17:09 38° 56° (NE) 14:23:45 435.910
AISAT 01 Aug 14:11:38 14:15:02 22° 303° (WNW) 14:18:21 437.250
BEESAT 01 Aug 14:13:33 14:17:09 21° 89° (E) 14:20:49 436.000
SO-50 01 Aug 14:13:39 14:17:55 28° 355° (N) 14:22:12 436.795
HUMSAT D 01 Aug 14:21:10 14:21:50 10° 312° (NW) 14:22:21 437.325/437.525
CUBEBUG 1 01 Aug 14:25:40 14:29:10 24° 301° (WNW) 14:32:35 437.445
HO-68 01 Aug 14:30:08 14:32:18 11° 341° (NNW) 14:34:21 435.675
AO-7 01 Aug 14:30:19 14:38:00 43° 51° (NE) 14:45:46 29.400- 29.500
SWISSCUBE 01 Aug 14:33:44 14:38:02 32° 94° (E) 14:42:19 437.505
Cosmos 2504 01 Aug 14:35:43 14:44:02 86° 260° (W) 14:52:41 435.465 / 435.565
DX 1 01 Aug 14:37:49 14:39:03 11° 313° (NW) 14:40:08 434.975-435.025
YUBILEINY 01 Aug 14:44:45 14:50:24 18° 290° (WNW) 14:55:41 435.215
Gurwin Techsat 1B 01 Aug 14:48:41 14:54:00 72° 256° (WSW) 14:59:22 435.225
VELOX 1 01 Aug 14:51:47 14:53:41 12° 311° (NW) 14:55:27 145.980
ITUPSAT 1 01 Aug 14:54:37 14:59:11 43° 98° (E) 15:03:45 437.325
SPROUT 01 Aug 15:01:18 15:05:00 28° 298° (WNW) 15:08:40 437.525
ESTCUBE 1 01 Aug 15:03:25 15:05:36 13° 310° (NW) 15:07:39 437.505/2401.250
KKS-1 01 Aug 15:05:37 15:07:39 13° 84° (E) 15:09:52 437.445
ITAMSAT 1 01 Aug 15:10:42 15:15:49 53° 259° (W) 15:20:57 435.822/435.867
TISAT 1 01 Aug 15:12:47 15:16:32 32° 297° (WNW) 15:20:16 437.305
Cosmos 2499 01 Aug 15:14:28 15:15:37 10° 17° (NNE) 15:17:00 435.465 / 435.565
HORYU 2 01 Aug 15:15:54 15:20:01 37° 64° (ENE) 15:24:11 437.375
DANDE 01 Aug 15:21:44 15:24:53 42° 72° (ENE) 15:28:54 436.750
Cosmos 2491 01 Aug 15:27:25 15:35:05 31° 307° (NW) 15:42:37 435.465 / 435.565
GONETS M04 01 Aug 15:30:46 15:37:32 25° 47° (NE) 15:44:30
Oscar 19 01 Aug 15:32:03 15:34:56 14° 277° (W) 15:37:37 437.125/150
CUSAT 1 01 Aug 15:40:58 15:44:38 80° 257° (WSW) 15:49:30 437.405
Cubesat XI-IV 01 Aug 15:49:03 15:49:10 10° 38° (NE) 15:49:28 437.490
BEESAT 01 Aug 15:50:43 15:55:31 70° 290° (WNW) 16:00:16 436.000
PCSat 01 Aug 15:51:30 15:56:10 28° 19° (NNE) 16:00:52 145.827
SO-50 01 Aug 15:55:05 15:59:39 34° 19° (NNE) 16:04:12 436.795
JAS-2 01 Aug 15:55:35 16:01:54 64° 260° (W) 16:09:06 435.910
SWISSCUBE 01 Aug 16:11:28 16:16:04 46° 295° (WNW) 16:20:37 437.505
STARS 01 Aug 16:13:38 16:17:37 32° 95° (E) 16:21:35 437.465
AO-7 01 Aug 16:22:10 16:30:32 69° 254° (WSW) 16:38:55 29.400- 29.500
Cosmos 2504 01 Aug 16:28:46 16:35:21 26° 282° (WNW) 16:41:53 435.465 / 435.565
Gurwin Techsat 1B 01 Aug 16:32:07 16:35:04 14° 278° (W) 16:37:48 435.225
ITUPSAT 1 01 Aug 16:32:40 16:37:03 36° 298° (WNW) 16:41:23 437.325
CUTE-I 01 Aug 16:40:32 16:44:14 20° 50° (NE) 16:48:02 437.470
KKS-1 01 Aug 16:40:37 16:45:06 80° 105° (ESE) 16:49:35 437.445
HORYU 2 01 Aug 16:52:32 16:56:41 36° 264° (W) 17:00:51 437.375
DANDE 01 Aug 17:05:19 17:07:55 19° 264° (W) 17:10:55 436.750
Cosmos 2499 01 Aug 17:06:11 17:12:50 25° 47° (NE) 17:19:52 435.465 / 435.565
Cubesat XI-IV 01 Aug 17:23:07 17:27:55 35° 60° (ENE) 17:32:46 437.490
CUSAT 1 01 Aug 17:25:47 17:26:57 11° 270° (W) 17:27:57 437.405
GONETS M04 01 Aug 17:27:31 17:36:15 73° 74° (ENE) 17:45:01
BEESAT 01 Aug 17:29:43 17:32:37 16° 310° (NW) 17:35:25 436.000
Cosmos 2491 01 Aug 17:32:17 17:35:47 12° 338° (NNW) 17:39:03 435.465 / 435.565
MOZHAYETS 4 01 Aug 17:32:18 17:36:45 43° 97° (E) 17:41:11
PCSat 01 Aug 17:35:05 17:40:32 67° 44° (NE) 17:45:57 145.827
SO-50 01 Aug 17:35:45 17:40:47 85° 42° (NE) 17:45:43 436.795
JAS-2 01 Aug 17:44:49 17:48:46 16° 285° (WNW) 17:52:41 435.910
STARS 01 Aug 17:49:59 17:54:10 41° 295° (WNW) 17:58:19 437.465
SWISSCUBE 01 Aug 17:51:20 17:52:54 11° 315° (NW) 17:54:18 437.505
HO-68 01 Aug 17:57:25 18:01:50 18° 35° (NE) 18:06:26 435.675
KKS-1 01 Aug 18:18:02 18:21:17 20° 304° (NW) 18:24:26 437.445
BRITE-PL 01 Aug 18:18:09 18:20:20 14° 54° (NE) 18:22:36 437.365/2234.400
CUTE-I 01 Aug 18:18:15 18:23:37 79° 71° (ENE) 18:29:01 437.470
AO-7 01 Aug 18:19:12 18:25:07 20° 278° (W) 18:30:43 29.400- 29.500
GOMX 1 01 Aug 18:28:52 18:30:12 12° 51° (NE) 18:31:41 467.674
CANX-2 01 Aug 18:50:35 18:52:01 12° 50° (NE) 18:53:35 2200.000
Cosmos 2499 01 Aug 18:59:10 19:07:47 71° 73° (ENE) 19:16:42 435.465 / 435.565
Cubesat XI-IV 01 Aug 19:02:38 19:07:54 53° 260° (W) 19:13:10 437.490
MOZHAYETS 4 01 Aug 19:09:43 19:13:54 33° 298° (WNW) 19:18:02
SO-50 01 Aug 19:16:53 19:20:53 24° 242° (WSW) 19:24:43 436.795
PCSat 01 Aug 19:18:52 19:23:41 32° 244° (WSW) 19:28:26 145.827
GONETS M04 01 Aug 19:24:55 19:32:35 35° 278° (W) 19:40:07
CUBESAT XI-V 01 Aug 19:26:57 19:31:31 55° 100° (E) 19:36:03 437.345
Cosmos 2491 01 Aug 19:36:53 19:38:00 10° 12° (NNE) 19:39:17 435.465 / 435.565
HO-68 01 Aug 19:41:21 19:48:08 49° 58° (ENE) 19:54:58 435.675
DOVE 4 01 Aug 19:51:01 19:54:43 33° 64° (ENE) 19:58:30 437.250
BRITE-PL 01 Aug 19:54:02 19:58:19 80° 74° (ENE) 20:02:30 437.365/2234.400
COMPASS 1 01 Aug 19:56:38 19:59:58 23° 60° (ENE) 20:03:23 437.405
CINEMA 3 01 Aug 19:58:53 20:02:05 22° 58° (ENE) 20:05:26 145.822/145.860
CUTE-I 01 Aug 20:00:13 20:04:22 22° 272° (W) 20:08:25 437.470
STRAND 1 01 Aug 20:02:58 20:07:48 40° 97° (E) 20:12:36 437.568
GOMX 1 01 Aug 20:03:29 20:07:37 62° 71° (ENE) 20:11:44 467.674
FUNcube-1 01 Aug 20:10:45 20:12:10 12° 49° (NE) 20:13:45 145.935
SEEDS 01 Aug 20:11:29 20:15:22 35° 65° (ENE) 20:19:19 437.485
UWE-3 01 Aug 20:12:41 20:14:59 15° 52° (NE) 20:17:26 435.000/436.395/437.385
CUTE 1.7 + AOD 2 01 Aug 20:14:37 20:18:42 44° 67° (ENE) 20:22:50 437.475
Oscar 11 01 Aug 20:21:06 20:24:11 20° 57° (ENE) 20:27:23 145.826/435.025
CANX-2 01 Aug 20:22:54 20:27:06 56° 70° (ENE) 20:31:21 2200.000
DELFI C3 01 Aug 20:23:02 20:25:11 14° 54° (NE) 20:27:27 145.870
PRISM 01 Aug 20:25:25 20:29:27 49° 100° (E) 20:33:28 437.425
CUBEBUG 2 01 Aug 20:27:43 20:30:56 22° 58° (ENE) 20:34:18 437.445
AAUSAT CUBESAT 2 01 Aug 20:37:00 20:40:59 42° 67° (ENE) 20:45:00 437.432
Cubesat XI-IV 01 Aug 20:48:54 20:49:25 10° 282° (WNW) 20:49:37 437.490
Cosmos 2499 01 Aug 20:52:47 21:00:34 38° 276° (W) 21:08:25 435.465 / 435.565
DX 1 01 Aug 20:53:09 20:54:32 12° 48° (NE) 20:56:04 434.975-435.025
CUBESAT XI-V 01 Aug 21:04:49 21:08:43 27° 300° (WNW) 21:12:33 437.345
VELOX 1 01 Aug 21:09:29 21:10:17 11° 47° (NE) 21:11:14 145.980
ZACube-1 01 Aug 21:22:13 21:26:10 38° 65° (ENE) 21:30:14 437.345
ESTCUBE 1 01 Aug 21:22:26 21:23:21 11° 47° (NE) 21:24:26 437.505/2401.250
DOVE 4 01 Aug 21:28:40 21:32:31 35° 265° (W) 21:36:23 437.250
HO-68 01 Aug 21:28:59 21:35:56 51° 260° (W) 21:42:54 435.675
COMPASS 1 01 Aug 21:31:10 21:35:21 57° 259° (W) 21:39:34 437.405
Cosmos 2491 01 Aug 21:32:51 21:39:22 23° 44° (NE) 21:46:04 435.465 / 435.565
CINEMA 3 01 Aug 21:34:49 21:38:57 61° 259° (WSW) 21:43:14 145.822/145.860
BRITE-PL 01 Aug 21:34:57 21:37:30 15° 274° (W) 21:39:52 437.365/2234.400
STRAND 1 01 Aug 21:42:15 21:47:03 41° 297° (WNW) 21:51:48 437.568
GOMX 1 01 Aug 21:43:13 21:46:15 19° 272° (W) 21:49:10 467.674
FUNcube-1 01 Aug 21:43:29 21:47:38 56° 69° (ENE) 21:51:55 145.935
UWE-3 01 Aug 21:46:35 21:50:49 76° 74° (ENE) 21:55:12 435.000/436.395/437.385
SEEDS 01 Aug 21:47:14 21:51:11 35° 265° (W) 21:55:08 437.485
50 SAT 01 Aug 21:48:10 21:50:50 18° 58° (ENE) 21:53:36 437.505
AUBIESAT-1 01 Aug 21:49:17 21:50:37 11° 87° (E) 21:52:10 437.475
RS-15 01 Aug 21:49:25 21:59:14 42° 113° (ESE) 22:09:35 29.354- 29.394
CUTE 1.7 + AOD 2 01 Aug 21:51:02 21:54:47 28° 267° (W) 21:58:31 437.475
DELFI C3 01 Aug 21:55:34 21:59:39 80° 73° (ENE) 22:03:45 145.870
Oscar 11 01 Aug 21:55:34 21:59:56 76° 256° (WSW) 22:04:19 145.826/435.025
UKube-1 01 Aug 21:57:33 22:01:19 30° 61° (ENE) 22:05:08 .
CANX-2 01 Aug 21:59:57 22:03:23 22° 270° (W) 22:06:46 2200.000
PRISM 01 Aug 22:01:14 22:04:41 25° 300° (WNW) 22:08:02 437.425
CUBEBUG 2 01 Aug 22:03:03 22:07:15 65° 259° (W) 22:11:36 437.445
AISAT 01 Aug 22:03:34 22:07:10 25° 59° (ENE) 22:10:49 437.250
HUMSAT D 01 Aug 22:05:46 22:09:44 45° 67° (ENE) 22:13:49 437.325/437.525
AAUSAT CUBESAT 2 01 Aug 22:13:01 22:16:43 28° 267° (W) 22:20:24 437.432
CUBEBUG 1 01 Aug 22:16:55 22:20:07 21° 57° (ENE) 22:23:24 437.445
AIST 1 01 Aug 22:18:03 22:21:17 21° 61° (ENE) 22:24:34
UNISAT 6 01 Aug 22:25:00 22:26:29 12° 81° (E) 22:28:11 437.425
DX 1 01 Aug 22:25:43 22:29:57 54° 68° (ENE) 22:34:13 434.975-435.025
ISS 01 Aug 22:34:44 22:37:09 20° 152° (SSE) 22:39:37 145.825
VELOX 1 01 Aug 22:41:40 22:45:54 47° 67° (ENE) 22:50:10 145.980
SPROUT 01 Aug 22:51:55 22:54:33 16° 54° (NE) 22:57:15 437.525
M-CUBED/EXP-1 PRIME 01 Aug 22:52:41 22:57:14 40° 103° (ESE) 23:01:45 437.505
ESTCUBE 1 01 Aug 22:54:56 22:59:16 47° 66° (ENE) 23:03:38 437.505/2401.250
ZACube-1 01 Aug 22:58:45 23:02:37 32° 266° (W) 23:06:31 437.345
TISAT 1 01 Aug 23:02:32 23:04:39 14° 53° (NE) 23:06:54 437.305
TIGRISAT 01 Aug 23:06:31 23:10:19 24° 91° (E) 23:14:12 435.000
ANTELSAT 01 Aug 23:08:27 23:12:22 26° 91° (E) 23:16:21 437.575/2403.000
QB50P1 01 Aug 23:08:31 23:09:27 11° 82° (E) 23:10:35 145.935-145.965
NANOSAT C BR1 01 Aug 23:09:31 23:10:29 11° 82° (E) 23:11:40 145.865
FUNcube-1 01 Aug 23:20:58 23:24:21 22° 271° (W) 23:27:42 145.935
50 SAT 01 Aug 23:21:05 23:25:00 70° 257° (WSW) 23:28:57 437.505
AUBIESAT-1 01 Aug 23:21:36 23:26:20 60° 108° (ESE) 23:31:00 437.475
HO-68 01 Aug 23:22:57 23:25:42 12° 285° (WNW) 23:28:02 435.675
STRAND 1 01 Aug 23:23:38 23:25:06 11° 318° (NW) 23:26:23 437.568
UWE-3 01 Aug 23:25:09 23:27:58 17° 274° (W) 23:30:44 435.000/436.395/437.385
Cosmos 2491 01 Aug 23:29:35 23:38:18 67° 72° (ENE) 23:47:00 435.465 / 435.565
DELFI C3 01 Aug 23:32:52 23:35:18 15° 274° (W) 23:37:38 145.870
UKube-1 01 Aug 23:33:11 23:37:20 44° 261° (W) 23:41:30 .
Oscar 11 01 Aug 23:35:08 23:36:58 12° 277° (W) 23:38:38 145.826/435.025
AISAT 01 Aug 23:39:08 23:43:29 56° 259° (W) 23:47:50 437.250
HUMSAT D 01 Aug 23:42:04 23:45:40 27° 268° (W) 23:49:17 437.325/437.525
POLYITAN 1 01 Aug 23:49:57 23:53:30 25° 92° (E) 23:57:06 437.675
CUBEBUG 1 01 Aug 23:51:45 23:56:06 70° 257° (WSW) 00:00:28 437.445
BEESAT 01 Aug 23:52:22 23:54:20 13° 47° (NE) 23:56:26 436.000
BEESAT 2 01 Aug 23:54:24 23:57:00 17° 116° (ESE) 23:59:44 435.950
AIST 1 01 Aug 23:55:08 23:59:23 61° 263° (W) 00:03:34
UNISAT 6 01 Aug 23:59:34 00:04:15 66° 103° (ESE) 00:08:57 437.425
RS-15 01 Aug 23:59:44 00:10:50 83° 320° (NW) 00:22:29 29.354- 29.394
YUBILEINY 02 Aug 00:00:37 00:08:06 35° 82° (E) 00:15:48 435.215
DX 1 02 Aug 00:02:57 00:06:31 24° 268° (W) 00:10:01 434.975-435.025
POPSAT HIP 1 02 Aug 00:06:38 00:10:31 34° 96° (E) 00:14:26 437.405
BUGSAT 1 02 Aug 00:08:28 00:11:44 23° 92° (E) 00:15:05 437.445
ISS 02 Aug 00:09:59 00:13:06 42° 171° (S) 00:16:13 145.825
SWISSCUBE 02 Aug 00:11:35 00:14:40 18° 52° (NE) 00:17:53 437.505
QB50P2 02 Aug 00:14:21 00:18:24 41° 98° (E) 00:22:28 145.880/145.840
VELOX 1 02 Aug 00:18:52 00:22:41 27° 267° (W) 00:26:27 145.980
SPROUT 02 Aug 00:25:47 00:30:03 88° 74° (ENE) 00:34:22 437.525
M-CUBED/EXP-1 PRIME 02 Aug 00:27:28 00:32:00 41° 302° (WNW) 00:36:29 437.505
BEESAT 3 02 Aug 00:32:03 00:35:51 39° 126° (SE) 00:39:42 437.485
ITUPSAT 1 02 Aug 00:32:07 00:35:45 22° 55° (NE) 00:39:29 437.325
ESTCUBE 1 02 Aug 00:32:20 00:36:20 29° 267° (W) 00:40:18 437.505/2401.250
TISAT 1 02 Aug 00:35:36 00:39:46 75° 72° (ENE) 00:43:58 437.305
DUCHIFAT 1 02 Aug 00:38:16 00:42:30 63° 102° (ESE) 00:46:42 145.980
QB50P1 02 Aug 00:41:56 00:46:12 70° 103° (ESE) 00:50:28 145.935-145.965
TIGRISAT 02 Aug 00:42:49 00:47:25 59° 291° (WNW) 00:52:03 435.000
NANOSAT C BR1 02 Aug 00:42:57 00:47:12 71° 102° (ESE) 00:51:27 145.865
ANTELSAT 02 Aug 00:44:52 00:49:27 56° 291° (WNW) 00:54:04 437.575/2403.000
AUBIESAT-1 02 Aug 00:56:38 01:00:45 30° 307° (NW) 01:04:49 437.475
O/OREOS (USA 219) 02 Aug 01:16:16 01:18:39 15° 100° (E) 01:21:13 437.305
POLYITAN 1 02 Aug 01:25:30 01:29:38 49° 292° (WNW) 01:33:47 437.675
BEESAT 02 Aug 01:26:35 01:31:15 52° 66° (ENE) 01:35:56 436.000
Cosmos 2491 02 Aug 01:26:56 01:34:48 39° 276° (W) 01:42:32 435.465 / 435.565
Cosmos 2504 02 Aug 01:27:25 01:31:08 15° 69° (ENE) 01:35:19 435.465 / 435.565
AIST 2 02 Aug 01:29:30 01:33:15 31° 123° (ESE) 01:37:03 435.215
BEESAT 2 02 Aug 01:30:23 01:34:31 86° 137° (SE) 01:38:41 435.950
CUBEBUG 1 02 Aug 01:32:03 01:33:22 11° 278° (W) 01:34:29 437.445
UNISAT 6 02 Aug 01:36:54 01:40:40 24° 302° (WNW) 01:44:24 437.425
POPSAT HIP 1 02 Aug 01:42:30 01:46:26 36° 295° (WNW) 01:50:21 437.405
BUGSAT 1 02 Aug 01:43:32 01:47:28 49° 292° (WNW) 01:51:25 437.445
STARS 02 Aug 01:43:38 01:45:48 14° 51° (NE) 01:48:05 437.465
ISS 02 Aug 01:46:08 01:49:14 40° 191° (S) 01:52:19 145.825
SWISSCUBE 02 Aug 01:47:04 01:51:53 80° 73° (ENE) 01:56:43 437.505
QB50P2 02 Aug 01:50:25 01:54:13 31° 297° (WNW) 01:57:59 145.880/145.840
